TimeEDT,TemperatureF,Dew PointF,Humidity,Sea Level PressureIn,VisibilityMPH,Wind Direction,Wind SpeedMPH,Gust SpeedMPH,PrecipitationIn,Events,Conditions,WindDirDegrees,DateUTC
12:15 AM,17.6,17.6,100,29.79,10.0,WSW,3.5,-,N/A,,Scattered Clouds,250,2013-03-13 04:15:00
12:35 AM,17.6,17.6,100,29.79,10.0,SW,3.5,-,N/A,,Mostly Cloudy,230,2013-03-13 04:35:00
12:55 AM,17.6,15.8,93,29.79,10.0,SW,3.5,-,N/A,,Overcast,230,2013-03-13 04:55:00
1:15 AM,17.6,15.8,93,29.79,10.0,WSW,4.6,-,N/A,,Overcast,240,2013-03-13 05:15:00
1:55 AM,17.6,17.6,100,29.79,10.0,WSW,4.6,-,N/A,,Overcast,250,2013-03-13 05:55:00
2:55 AM,17.6,17.6,100,29.79,10.0,West,4.6,-,N/A,,Overcast,260,2013-03-13 06:55:00
3:15 AM,17.6,17.6,100,29.79,10.0,West,5.8,-,N/A,,Overcast,270,2013-03-13 07:15:00
3:35 AM,17.6,15.8,93,29.79,10.0,West,5.8,-,N/A,,Overcast,270,2013-03-13 07:35:00
3:55 AM,17.6,15.8,93,29.79,8.0,West,4.6,-,N/A,,Overcast,280,2013-03-13 07:55:00
4:15 AM,17.6,17.6,100,29.79,4.0,NW,10.4,-,N/A,,Overcast,310,2013-03-13 08:15:00
4:55 AM,15.8,15.8,100,29.80,9.0,NNW,13.8,-,N/A,,Overcast,330,2013-03-13 08:55:00
5:15 AM,15.8,12.2,86,29.82,10.0,NNW,12.7,-,N/A,,Overcast,330,2013-03-13 09:15:00
5:35 AM,14.0,12.2,93,29.82,8.0,NNW,13.8,19.6,N/A,,Mostly Cloudy,330,2013-03-13 09:35:00
5:55 AM,12.2,10.4,92,29.83,10.0,NNW,12.7,21.9,N/A,,Mostly Cloudy,340,2013-03-13 09:55:00
6:15 AM,12.2,10.4,92,29.84,9.0,NNW,11.5,-,N/A,,Mostly Cloudy,340,2013-03-13 10:15:00
6:35 AM,12.2,12.2,100,29.85,7.0,NNW,10.4,-,N/A,,Mostly Cloudy,340,2013-03-13 10:35:00
6:55 AM,12.2,12.2,100,29.86,7.0,NNW,11.5,-,N/A,,Mostly Cloudy,340,2013-03-13 10:55:00
7:15 AM,14.0,12.2,93,29.86,3.0,NNW,8.1,-,N/A,,Overcast,340,2013-03-13 11:15:00
7:35 AM,14.0,12.2,93,29.87,10.0,NNW,10.4,-,N/A,,Overcast,340,2013-03-13 11:35:00
7:55 AM,14.0,12.2,93,29.87,3.0,NNW,8.1,-,N/A,,Overcast,330,2013-03-13 11:55:00
8:15 AM,14.0,12.2,93,29.88,3.0,NNW,4.6,-,N/A,,Overcast,330,2013-03-13 12:15:00
8:35 AM,14.0,12.2,93,29.89,2.5,NW,6.9,-,N/A,,Overcast,310,2013-03-13 12:35:00
8:55 AM,15.8,12.2,86,29.89,7.0,NW,11.5,-,N/A,,Overcast,320,2013-03-13 12:55:00
9:15 AM,15.8,12.2,86,29.89,2.5,NNW,13.8,24.2,N/A,,Overcast,330,2013-03-13 13:15:00
9:35 AM,15.8,12.2,86,29.90,5.0,NNW,13.8,25.3,N/A,,Overcast,330,2013-03-13 13:35:00
9:55 AM,15.8,12.2,86,29.90,8.0,NNW,20.7,24.2,N/A,,Overcast,330,2013-03-13 13:55:00
10:15 AM,17.6,12.2,79,29.90,2.5,NW,23.0,-,N/A,,Mostly Cloudy,320,2013-03-13 14:15:00
10:35 AM,15.8,10.4,79,29.91,3.0,NW,24.2,31.1,N/A,,Mostly Cloudy,320,2013-03-13 14:35:00
10:55 AM,17.6,10.4,73,29.92,1.0,NW,20.7,32.2,N/A,,Overcast,320,2013-03-13 14:55:00
11:15 AM,17.6,12.2,79,29.93,10.0,NW,17.3,26.5,N/A,,Partly Cloudy,320,2013-03-13 15:15:00
11:35 AM,17.6,12.2,79,29.93,5.0,NW,23.0,32.2,N/A,,Partly Cloudy,310,2013-03-13 15:35:00
11:55 AM,19.4,12.2,74,29.93,5.0,NW,18.4,32.2,N/A,,Partly Cloudy,310,2013-03-13 15:55:00
12:15 PM,19.4,12.2,74,29.94,8.0,NW,17.3,31.1,N/A,,Scattered Clouds,320,2013-03-13 16:15:00
12:35 PM,19.4,10.4,68,29.94,6.0,NW,21.9,36.8,N/A,,Partly Cloudy,320,2013-03-13 16:35:00
12:55 PM,19.4,12.2,74,29.95,4.0,NW,21.9,34.5,N/A,,Clear,320,2013-03-13 16:55:00
1:15 PM,19.4,12.2,74,29.96,9.0,NW,21.9,27.6,N/A,,Clear,310,2013-03-13 17:15:00
1:35 PM,21.2,12.2,68,29.97,7.0,NW,21.9,33.4,N/A,,Clear,320,2013-03-13 17:35:00
1:55 PM,21.2,12.2,68,29.97,10.0,NW,24.2,31.1,N/A,,Clear,310,2013-03-13 17:55:00
2:15 PM,21.2,12.2,68,29.96,5.0,NW,25.3,36.8,N/A,,Clear,310,2013-03-13 18:15:00
2:35 PM,23.0,10.4,59,29.95,3.0,NW,28.8,36.8,N/A,,Clear,310,2013-03-13 18:35:00
2:55 PM,21.2,10.4,63,29.97,3.0,NW,24.2,36.8,N/A,,Clear,320,2013-03-13 18:55:00
3:15 PM,21.2,10.4,63,29.97,6.0,NW,23.0,34.5,N/A,,Clear,320,2013-03-13 19:15:00
3:35 PM,21.2,10.4,63,29.97,7.0,NW,24.2,32.2,N/A,,Clear,310,2013-03-13 19:35:00
3:55 PM,24.8,12.2,59,29.97,8.0,NW,24.2,33.4,N/A,,Partly Cloudy,320,2013-03-13 19:55:00
4:15 PM,24.8,12.2,59,29.97,3.0,NW,27.6,39.1,N/A,,Partly Cloudy,310,2013-03-13 20:15:00
4:35 PM,23.0,12.2,63,29.99,7.0,NW,21.9,34.5,N/A,,Clear,310,2013-03-13 20:35:00
4:55 PM,24.8,14.0,64,29.98,3.0,WNW,26.5,36.8,N/A,,Clear,300,2013-03-13 20:55:00
5:15 PM,24.8,14.0,64,29.98,4.0,WNW,31.1,36.8,N/A,,Clear,300,2013-03-13 21:15:00
5:35 PM,24.8,14.0,64,30.00,4.0,WNW,23.0,38.0,N/A,,Clear,300,2013-03-13 21:35:00
5:55 PM,24.8,14.0,64,30.01,5.0,NW,24.2,38.0,N/A,,Clear,310,2013-03-13 21:55:00
6:15 PM,24.8,15.8,69,30.03,7.0,WNW,23.0,35.7,N/A,,Clear,300,2013-03-13 22:15:00
6:35 PM,23.0,15.8,74,30.03,8.0,NW,21.9,32.2,N/A,,Clear,320,2013-03-13 22:35:00
6:55 PM,24.8,14.0,64,30.04,10.0,NW,23.0,31.1,N/A,,Clear,320,2013-03-13 22:55:00
7:15 PM,24.8,14.0,64,30.05,9.0,WNW,17.3,29.9,N/A,,Clear,300,2013-03-13 23:15:00
7:35 PM,23.0,15.8,74,30.06,10.0,WNW,12.7,27.6,N/A,,Clear,300,2013-03-13 23:35:00
7:55 PM,21.2,15.8,80,30.07,10.0,WNW,18.4,28.8,N/A,,Clear,300,2013-03-13 23:55:00
8:15 PM,21.2,15.8,80,30.07,10.0,WNW,15.0,26.5,N/A,,Clear,300,2013-03-14 00:15:00
8:35 PM,21.2,14.0,74,30.08,10.0,WNW,11.5,17.3,N/A,,Clear,290,2013-03-14 00:35:00
8:55 PM,21.2,14.0,74,30.08,10.0,WNW,12.7,19.6,N/A,,Clear,290,2013-03-14 00:55:00
9:15 PM,21.2,14.0,74,30.09,10.0,West,10.4,-,N/A,,Clear,280,2013-03-14 01:15:00
9:35 PM,21.2,14.0,74,30.09,10.0,WNW,11.5,17.3,N/A,,Clear,290,2013-03-14 01:35:00
9:55 PM,19.4,14.0,80,30.10,10.0,West,11.5,-,N/A,,Clear,280,2013-03-14 01:55:00
10:15 PM,19.4,14.0,80,30.10,10.0,West,9.2,-,N/A,,Clear,270,2013-03-14 02:15:00
10:35 PM,19.4,12.2,74,30.11,10.0,West,6.9,-,N/A,,Clear,260,2013-03-14 02:35:00
10:55 PM,17.6,14.0,86,30.11,10.0,West,9.2,-,N/A,,Clear,260,2013-03-14 02:55:00
11:15 PM,17.6,14.0,86,30.11,10.0,West,9.2,-,N/A,,Clear,280,2013-03-14 03:15:00
11:35 PM,17.6,15.8,93,30.11,10.0,West,10.4,-,N/A,,Clear,270,2013-03-14 03:35:00
11:55 PM,17.6,15.8,93,30.11,10.0,West,8.1,-,N/A,,Clear,260,2013-03-14 03:55:00